Location: Unspecified
(44.0704°N, 88.6889°W)
Time: 00:32:42
(UTC+02:00)

Transit 2A - Pass Details

Date: 22 June 2019
Orbit: 594 x 964 km, 66.7° (Epoch: 20 July)

Event Time Altitude Azimuth Distance (km) Brightness Sun altitude
Rises 07:23:09 0° 186° (S) 3,600 - -22.1°
Reaches altitude 10° 07:25:48 10° 179° (S) 2,679 - -22.1°
Exits shadow 07:30:27 37° 138° (SE) 1,452 7.0 -22.2°
Maximum altitude 07:31:39 41° 112° (ESE) 1,372 7.0 -22.2°
Drops below altitude 10° 07:37:29 10° 45° (NE) 2,673 9.3 -22.3°
Sets 07:40:08 0° 38° (NE) 3,592 10.2 -22.4°
